FW6151 Weather Reports


time (UTC)temp
F
wind
direction
speed
knots
gust
knots
rain 1hr
in
rain 24hr
in
rain mn
in
humidity
%
barometer
mb
20260901092538 73 109 0.0 1.7 0.00 0.00 0.00 59 1024.6
20260901092039 73 323 0.9 3.5 0.00 0.00 0.00 58 1024.6
20260901091537 74 287 0.0 3.5 0.00 0.00 0.00 60 1024.7
20260901091035 73 256 0.0 3.5 0.00 0.00 0.00 59 1024.6
20260901090535 74 207 0.9 3.5 0.00 0.00 0.00 60 1024.6
20260901090038 74 327 1.7 3.5 0.00 0.00 0.00 60 1024.5
20260901085533 73 122 0.0 0.0 0.00 0.00 0.00 61 1024.6
20260901085032 73 122 0.0 2.6 0.00 0.00 0.00 62 1024.6
20260901084541 73 122 0.0 2.6 0.00 0.00 0.00 62 1024.6
20260901084035 72 178 0.0 3.5 0.00 0.00 0.00 64 1024.6
20260901083533 71 178 0.9 3.5 0.00 0.00 0.00 65 1024.6
20260901083034 71 175 0.0 1.7 0.00 0.00 0.00 65 1024.7
20260901082527 70 175 0.0 1.7 0.00 0.00 0.00 66 1024.7
20260901082028 70 175 0.0 0.0 0.00 0.00 0.00 67 1024.6
20260901081523 69 175 0.0 0.9 0.00 0.00 0.00 68 1024.5
20260901081021 69 155 0.0 0.0 0.00 0.00 0.00 69 1024.6
20260901080520 68 193 0.0 0.0 0.00 0.00 0.00 71 1024.6
20260901080019 67 193 0.0 0.0 0.00 0.00 0.00 72 1024.6
20260901075518 66 193 0.0 0.0 0.00 0.00 0.00 73 1024.6
20260901075020 66 193 0.0 0.0 0.00 0.00 0.00 74 1024.6
20260901074516 65 257 0.0 0.0 0.00 0.00 0.00 74 1024.5
20260901074014 65 256 0.0 0.0 0.00 0.00 0.00 76 1024.6
20260901073513 65 257 0.0 0.0 0.00 0.00 0.00 77 1024.6
20260901073013 64 273 0.0 0.0 0.00 0.00 0.00 78 1024.5
20260901072513 64 274 0.0 0.9 0.00 0.00 0.00 79 1024.5
20260901072013 63 274 0.0 1.7 0.00 0.00 0.00 80 1024.6
20260901071512 63 274 0.0 1.7 0.00 0.00 0.00 80 1024.6
20260901071011 62 273 0.0 1.7 0.00 0.00 0.00 81 1024.6
20260901070511 62 273 0.0 2.6 0.00 0.00 0.00 82 1024.7
20260901070012 61 272 0.0 2.6 0.00 0.00 0.00 82 1024.6
20260901065510 61 267 0.0 2.6 0.00 0.00 0.00 83 1024.5
20260901065010 61 267 0.0 2.6 0.00 0.00 0.00 83 1024.6
20260901064511 60 273 0.0 0.9 0.00 0.00 0.00 84 1024.6
20260901064011 60 290 0.0 1.7 0.00 0.00 0.00 84 1024.5
20260901063511 60 296 0.0 1.7 0.00 0.00 0.00 84 1024.6
20260901063013 60 296 0.0 1.7 0.00 0.00 0.00 85 1024.5
20260901062510 59 296 0.0 1.7 0.00 0.00 0.00 85 1024.6
20260901062017 59 296 0.0 3.5 0.00 0.00 0.00 85 1024.5
20260901061509 59 290 0.0 3.5 0.00 0.00 0.00 85 1024.5
20260901061009 59 235 0.0 2.6 0.00 0.00 0.00 85 1024.5
20260901060508 59 233 0.9 2.6 0.00 0.00 0.00 85 1024.5
20260901060008 58 237 0.0 2.6 0.00 0.00 0.00 85 1024.4
20260901055506 58 327 0.0 1.7 0.00 0.00 0.00 85 1024.3
20260901055010 58 327 0.0 2.6 0.00 0.00 0.00 85 1024.3
20260901054505 58 327 0.0 2.6 0.00 0.00 0.00 85 1024.2
20260901054005 58 325 0.9 3.5 0.00 0.00 0.00 85 1024.2
20260901053504 58 336 0.0 3.5 0.00 0.00 0.00 85 1024.2
20260901053005 58 317 0.9 3.5 0.00 0.00 0.00 85 1024.2
20260901052502 58 316 1.7 3.5 0.00 0.00 0.00 85 1024.2
20260901052005 58 312 0.9 3.5 0.00 0.00 0.00 85 1024.1
20260901051502 58 313 1.7 3.5 0.00 0.00 0.00 85 1024.1
20260901051001 58 308 0.9 2.6 0.00 0.00 0.00 85 1024.1
20260901050502 58 304 0.9 2.6 0.00 0.00 0.00 85 1024.2
20260901045559 58 304 0.9 3.5 0.00 0.00 0.00 85 1024.1
20260901045101 58 304 1.7 3.5 0.00 0.00 0.00 85 1024.1
20260901044627 58 302 0.0 3.5 0.00 0.00 0.00 85 1024.1
20260901044100 58 306 0.9 3.5 0.00 0.00 0.00 85 1024.1
20260901043558 58 304 0.0 2.6 0.00 0.00 0.00 84 1024.1
20260901043101 58 304 0.0 3.5 0.00 0.00 0.00 84 1024.0
20260901042557 58 306 0.0 2.6 0.00 0.00 0.00 84 1024.1
20260901042057 59 275 0.0 1.7 0.00 0.00 0.00 84 1024.1
20260901041556 59 296 0.0 1.7 0.00 0.00 0.00 83 1024.0
20260901041056 59 296 0.0 0.9 0.00 0.00 0.00 83 1024.0
20260901040555 59 296 0.0 0.9 0.00 0.00 0.00 83 1023.9
20260901040057 59 296 0.0 0.0 0.00 0.00 0.00 82 1023.9
20260901035556 59 296 0.0 0.0 0.00 0.00 0.00 83 1023.9
20260901035053 59 296 0.0 0.9 0.00 0.00 0.00 83 1023.9
20260901034600 59 296 0.0 1.7 0.00 0.00 0.00 82 1024.0
20260901034055 59 296 0.0 1.7 0.00 0.00 0.00 82 1023.9
20260901033552 59 296 0.0 1.7 0.00 0.00 0.00 82 1023.8
20260901033052 60 296 0.0 1.7 0.00 0.00 0.00 82 1023.8
20260901032556 60 296 0.0 0.9 0.00 0.00 0.00 82 1023.9
20260901032056 60 296 0.0 0.9 0.00 0.00 0.00 82 1023.9
20260901031553 60 296 0.0 0.9 0.00 0.00 0.00 82 1023.8
20260901031050 60 296 0.0 2.6 0.00 0.00 0.00 81 1023.9
20260901030549 60 296 0.9 2.6 0.00 0.00 0.00 81 1023.9
20260901030049 60 296 0.0 2.6 0.00 0.00 0.00 81 1023.9
20260901025548 60 296 0.9 2.6 0.00 0.01 0.00 81 1023.9
20260901025048 60 294 0.0 1.7 0.00 0.01 0.00 81 1023.9
20260901024548 61 294 0.0 0.0 0.00 0.01 0.00 81 1023.9
20260901024046 61 294 0.0 2.6 0.00 0.01 0.00 81 1023.9
20260901023546 61 294 0.9 2.6 0.00 0.01 0.00 81 1023.9
20260901023046 61 294 0.0 2.6 0.00 0.01 0.00 80 1023.9
20260901022546 61 294 0.0 1.7 0.00 0.01 0.00 80 1023.9
20260901022046 61 294 0.0 0.9 0.00 0.01 0.00 80 1023.9
20260901021606 61 294 0.0 1.7 0.00 0.01 0.00 80 1023.9
20260901021047 61 294 0.9 1.7 0.00 0.01 0.00 80 1023.9
20260901020543 61 297 0.0 1.7 0.00 0.01 0.00 80 1023.8
20260901020101 61 297 0.0 3.5 0.00 0.01 0.00 80 1023.8
20260901015543 61 274 0.0 0.9 0.00 0.01 0.00 80 1023.8
20260901015045 61 274 0.0 1.7 0.00 0.01 0.00 80 1023.9
20260901014548 61 274 0.0 1.7 0.00 0.01 0.00 79 1023.9
20260901014042 61 274 0.0 2.6 0.00 0.01 0.00 79 1023.9
20260901013542 61 274 0.0 2.6 0.00 0.01 0.00 79 1023.9
20260901013045 61 274 0.0 0.9 0.00 0.01 0.00 79 1023.9
20260901012543 61 274 0.0 0.9 0.00 0.01 0.00 79 1023.9
20260901012040 62 274 0.0 1.7 0.00 0.01 0.00 79 1023.8
20260901011543 62 274 0.0 1.7 0.00 0.01 0.00 78 1023.8
20260901011039 62 274 0.0 1.7 0.00 0.01 0.00 78 1023.8
20260901010539 62 274 0.0 1.7 0.00 0.01 0.00 78 1023.8
20260901010042 62 274 0.0 2.6 0.00 0.01 0.00 78 1023.6
20260901005538 62 274 0.0 2.6 0.00 0.01 0.00 78 1023.7
20260901005037 62 274 0.9 1.7 0.00 0.01 0.00 78 1023.7
20260901004541 62 274 0.0 1.7 0.00 0.01 0.00 78 1023.7
20260901004037 62 274 0.0 1.7 0.00 0.01 0.00 78 1023.7
20260901003536 62 274 0.0 1.7 0.00 0.01 0.00 78 1023.7
20260901003043 62 274 0.0 1.7 0.00 0.01 0.00 77 1023.7
20260901002536 62 274 0.9 1.7 0.00 0.01 0.00 77 1023.7
20260901002035 62 273 0.0 1.7 0.00 0.01 0.00 77 1023.7
20260901001541 63 272 0.0 1.7 0.00 0.01 0.00 77 1023.6
20260901001033 63 272 0.0 1.7 0.00 0.01 0.00 77 1023.7
20260901000533 63 272 0.0 2.6 0.00 0.01 0.00 77 1023.7
20260901000034 63 272 0.0 3.5 0.00 0.01 0.00 77 1023.7
20260831235532 63 270 0.0 1.7 0.00 0.22 0.00 77 1023.7
20260831235032 63 269 0.0 0.9 0.00 0.22 0.00 76 1023.6
20260831234537 63 269 0.0 1.7 0.00 0.22 0.00 76 1023.6
20260831234031 63 270 0.0 1.7 0.00 0.22 0.00 76 1023.7
20260831233533 63 273 0.0 1.7 0.00 0.22 0.00 76 1023.7
20260831233041 63 273 0.0 2.6 0.00 0.22 0.00 76 1023.6
20260831232529 63 273 0.0 2.6 0.00 0.22 0.00 76 1023.7
20260831232032 63 207 0.0 1.7 0.00 0.22 0.00 76 1023.7
20260831231528 64 207 0.0 0.9 0.00 0.22 0.00 75 1023.7
20260831231028 64 207 0.0 0.9 0.00 0.22 0.00 75 1023.7
20260831230528 64 207 0.0 0.0 0.00 0.22 0.00 75 1023.7
20260831230029 64 207 0.0 0.0 0.00 0.22 0.00 74 1023.6
20260831225527 64 207 0.0 0.0 0.00 0.38 0.00 74 1023.7
20260831225030 64 207 0.0 0.0 0.00 0.38 0.00 74 1023.6
20260831224526 64 207 0.0 0.0 0.00 0.38 0.00 74 1023.6
20260831224026 64 207 0.0 0.0 0.00 0.38 0.00 74 1023.6
20260831223525 64 207 0.0 0.0 0.00 0.38 0.00 73 1023.7
20260831223025 64 207 0.0 0.0 0.00 0.38 0.00 73 1023.7
20260831222525 64 207 0.0 0.9 0.00 0.38 0.00 73 1023.7
20260831222023 64 207 0.0 0.9 0.00 0.38 0.00 73 1023.7
20260831221524 64 207 0.0 0.0 0.00 0.38 0.00 72 1023.7
20260831221022 64 207 0.0 0.0 0.00 0.38 0.00 72 1023.8
20260831220521 64 207 0.0 0.0 0.00 0.38 0.00 72 1023.7
20260831220023 65 207 0.0 0.0 0.00 0.38 0.00 71 1023.8
20260831215522 65 207 0.0 0.0 0.00 0.38 0.38 71 1023.8
20260831215020 65 207 0.0 0.0 0.00 0.38 0.38 70 1023.7
20260831214520 65 207 0.0 0.0 0.00 0.38 0.38 70 1023.7
20260831214019 65 207 0.0 0.0 0.00 0.38 0.38 69 1023.7
20260831213519 65 207 0.0 0.0 0.00 0.38 0.38 69 1023.7
20260831213030 66 207 0.0 0.0 0.00 0.38 0.38 68 1023.7
20260831212526 66 207 0.0 0.0 0.00 0.38 0.38 68 1023.6
20260831212020 66 207 0.0 0.0 0.00 0.38 0.38 67 1023.7
20260831211517 67 207 0.0 0.0 0.00 0.38 0.38 66 1023.7
20260831211017 67 207 0.0 0.0 0.00 0.38 0.38 65 1023.7
20260831210517 67 207 0.0 0.9 0.00 0.38 0.38 65 1023.6
20260831210020 67 207 0.0 0.9 0.00 0.38 0.38 65 1023.6
20260831205517 68 207 0.0 0.9 0.00 0.38 0.38 64 1023.6
20260831205017 68 207 0.0 1.7 0.00 0.38 0.38 63 1023.5
20260831204517 68 207 0.0 1.7 0.00 0.38 0.38 62 1023.5
20260831204021 69 205 0.0 0.9 0.00 0.38 0.38 61 1023.6
20260831203516 69 205 0.0 1.7 0.00 0.38 0.38 61 1023.5
20260831203018 69 205 0.0 1.7 0.00 0.38 0.38 61 1023.5
20260831202516 69 211 0.0 0.9 0.00 0.38 0.38 60 1023.5
20260831202015 69 211 0.0 1.7 0.00 0.38 0.38 60 1023.4
20260831201516 69 211 0.0 1.7 0.00 0.38 0.38 59 1023.2
20260831201020 69 211 0.0 0.9 0.00 0.38 0.38 59 1023.1
20260831200512 70 211 0.0 1.7 0.00 0.38 0.38 59 1023.0
20260831200021 70 211 0.0 2.6 0.00 0.38 0.38 59 1022.9
20260831195514 70 317 0.0 2.6 0.00 0.38 0.38 58 1022.8
20260831195011 70 277 0.9 2.6 0.00 0.38 0.38 58 1022.8
20260831194524 70 194 0.0 0.9 0.00 0.38 0.38 58 1022.7
20260831194012 70 194 0.0 0.9 0.00 0.38 0.38 57 1022.8
20260831193520 70 194 0.0 0.9 0.00 0.38 0.38 57 1022.7
20260831193011 71 194 0.0 0.0 0.00 0.38 0.38 57 1022.7
20260831192513 71 194 0.0 0.0 0.00 0.38 0.38 56 1022.7
20260831192011 71 194 0.0 0.0 0.00 0.38 0.38 55 1022.6
20260831191511 71 194 0.0 0.0 0.00 0.38 0.38 54 1022.6
20260831191009 71 194 0.0 0.0 0.00 0.38 0.38 54 1022.5
20260831190509 71 194 0.0 0.9 0.00 0.38 0.38 54 1022.5
20260831190010 71 194 0.0 0.9 0.00 0.38 0.38 54 1022.5
20260831185608 72 194 0.0 1.7 0.00 0.38 0.38 53 1022.5
20260831185008 72 123 0.0 1.7 0.00 0.38 0.38 53 1022.2
20260831184515 72 116 0.0 1.7 0.00 0.38 0.38 53 1022.1
20260831184005 72 55 0.0 0.0 0.00 0.38 0.38 53 1022.0
20260831183506 72 55 0.0 1.7 0.00 0.38 0.38 52 1021.9
20260831183007 72 55 0.0 2.6 0.00 0.38 0.38 52 1021.9
20260831182504 73 57 0.9 2.6 0.00 0.38 0.38 52 1021.8
20260831182003 73 44 0.0 3.5 0.00 0.38 0.38 51 1021.7
20260831181505 73 78 0.0 3.5 0.00 0.38 0.38 51 1021.7
20260831181001 73 119 0.0 2.6 0.00 0.38 0.38 51 1021.5
20260831180503 73 117 0.0 3.5 0.00 0.38 0.38 50 1021.4
20260831180001 73 95 0.9 3.5 0.00 0.38 0.38 50 1021.3
20260831175502 73 19 0.0 3.5 0.00 0.38 0.38 50 1021.5
20260831175003 74 169 0.0 2.6 0.00 0.38 0.38 50 1021.4
20260831174504 74 178 0.9 2.6 0.00 0.38 0.38 49 1021.3
20260831174002 74 123 0.0 3.5 0.00 0.38 0.38 49 1021.3
20260831173502 74 35 0.9 2.6 0.00 0.38 0.38 49 1021.3
20260831173001 74 72 0.0 1.7 0.00 0.38 0.38 49 1021.3
20260831172501 74 72 0.0 2.6 0.00 0.38 0.38 48 1021.3
20260831172002 75 355 0.0 6.1 0.00 0.38 0.38 48 1021.3
20260831171601 75 351 0.9 6.1 0.00 0.38 0.38 47 1021.3
20260831171100 75 126 0.0 3.5 0.00 0.38 0.38 47 1021.3
20260831170600 75 119 0.9 3.5 0.00 0.38 0.38 47 1021.3
20260831165600 75 24 0.9 8.7 0.00 0.38 0.38 47 1021.3
20260831165059 75 158 1.7 8.7 0.00 0.38 0.38 46 1021.3
20260831164600 75 50 0.9 7.0 0.00 0.38 0.38 46 1021.3
20260831164103 76 38 2.6 8.7 0.00 0.38 0.38 46 1021.3
20260831163600 76 84 2.6 7.8 0.00 0.38 0.38 46 1021.4
20260831163100 76 22 2.6 11.3 0.00 0.38 0.38 45 1021.4
20260831162600 76 288 3.5 11.3 0.00 0.38 0.38 45 1021.4
20260831162059 76 72 0.9 7.0 0.00 0.38 0.38 46 1021.3
20260831161559 76 120 2.6 7.0 0.00 0.38 0.38 45 1021.3
20260831161058 76 59 1.7 12.2 0.00 0.38 0.38 45 1021.3
20260831160558 76 102 1.7 7.0 0.00 0.38 0.38 45 1021.3
20260831160058 76 90 2.6 9.6 0.00 0.38 0.38 45 1021.2
20260831155558 76 71 1.7 9.6 0.00 0.38 0.38 45 1021.3
20260831155100 76 5 2.6 13.0 0.00 0.38 0.38 44 1021.4
20260831154601 76 189 5.2 13.0 0.00 0.38 0.38 44 1021.2
20260831154058 76 199 2.6 7.0 0.00 0.38 0.38 46 1021.2
20260831153558 76 78 2.6 10.4 0.00 0.38 0.38 46 1021.2
20260831153058 76 300 2.6 10.4 0.00 0.38 0.38 46 1021.2
20260831152557 77 79 2.6 11.3 0.00 0.38 0.38 48 1021.1
20260831152057 77 258 2.6 11.3 0.00 0.38 0.38 48 1021.1
20260831151603 77 262 1.7 8.7 0.00 0.38 0.38 48 1021.0
20260831151057 77 144 2.6 9.6 0.00 0.38 0.38 47 1021.1
20260831150557 77 329 3.5 9.6 0.00 0.38 0.38 48 1020.9
20260831150057 77 135 3.5 9.6 0.00 0.38 0.38 49 1020.8
20260831145556 78 35 3.5 11.3 0.00 0.38 0.38 48 1020.8
20260831145057 78 180 1.7 11.3 0.00 0.38 0.38 48 1020.7
20260831144614 78 244 3.5 12.2 0.00 0.38 0.38 48 1020.6
20260831144057 78 178 2.6 12.2 0.00 0.38 0.38 48 1020.5
20260831143556 79 240 1.7 13.0 0.00 0.38 0.38 48 1020.5
20260831143056 79 74 3.5 13.0 0.00 0.38 0.38 47 1020.3
20260831142556 79 350 1.7 7.0 0.00 0.38 0.38 48 1020.3
20260831142055 79 128 1.7 6.1 0.00 0.38 0.38 48 1020.3
20260831141555 80 159 0.9 7.8 0.00 0.38 0.38 47 1020.2
20260831141059 80 12 1.7 7.8 0.00 0.38 0.38 48 1020.4
20260831140559 80 284 0.9 7.0 0.00 0.38 0.38 47 1020.2
20260831140055 80 338 1.7 6.1 0.00 0.38 0.38 47 1020.3
20260831135555 79 169 0.9 6.1 0.00 0.38 0.38 48 1020.3
20260831135055 79 331 0.9 7.8 0.00 0.38 0.38 48 1020.3
20260831134559 78 143 1.7 10.4 0.00 0.38 0.38 47 1020.4
20260831134055 80 340 1.7 10.4 0.00 0.38 0.38 45 1020.2
20260831133554 80 26 0.9 7.0 0.00 0.38 0.38 44 1020.3
20260831133055 80 51 0.0 7.0 0.00 0.38 0.38 44 1020.2
20260831132554 80 119 1.7 5.2 0.00 0.38 0.38 44 1020.3
20260831132054 80 63 0.9 4.3 0.00 0.38 0.38 44 1020.4
20260831131554 80 192 1.7 5.2 0.00 0.38 0.38 44 1020.4
20260831131052 80 284 0.9 7.8 0.00 0.38 0.38 44 1020.5
20260831130551 79 131 1.7 7.0 0.00 0.38 0.38 44 1020.4
20260831130051 79 54 1.7 8.7 0.00 0.38 0.38 44 1020.5
20260831125553 78 19 2.6 10.4 0.00 0.38 0.38 44 1020.6
20260831125050 79 350 3.5 10.4 0.00 0.38 0.38 43 1020.6
20260831124550 79 309 1.7 7.8 0.00 0.38 0.38 44 1020.7
20260831124050 79 339 2.6 10.4 0.00 0.38 0.38 44 1020.7
20260831123549 78 324 3.5 10.4 0.00 0.38 0.38 45 1020.6
20260831123048 78 177 1.7 7.8 0.00 0.38 0.38 46 1020.6
20260831122547 78 79 2.6 7.8 0.00 0.38 0.38 45 1020.6
20260831122048 78 294 1.7 7.8 0.00 0.38 0.38 45 1020.7
20260831121547 78 319 1.7 9.6 0.00 0.38 0.38 46 1020.7
20260831121046 77 18 2.6 9.6 0.00 0.38 0.38 46 1020.8
20260831120548 78 76 1.7 7.0 0.00 0.38 0.38 46 1020.8
20260831120045 77 355 1.7 7.0 0.00 0.38 0.38 45 1020.8
20260831115544 77 65 1.7 7.8 0.00 0.38 0.38 46 1020.8
20260831115044 77 360 2.6 7.8 0.00 0.38 0.38 46 1020.9
20260831114545 77 5 1.7 7.0 0.00 0.38 0.38 46 1020.9
20260831114047 77 348 1.7 13.9 0.00 0.38 0.38 46 1021.0
20260831113543 77 277 3.5 13.9 0.00 0.38 0.38 46 1020.9
20260831113047 76 335 1.7 7.0 0.00 0.38 0.38 50 1020.9
20260831112541 76 219 1.7 7.8 0.00 0.38 0.38 50 1021.0
20260831112040 76 309 2.6 7.8 0.00 0.38 0.38 50 1021.0
20260831111603 76 355 1.7 6.1 0.00 0.38 0.38 50 1021.1
20260831111039 75 185 1.7 8.7 0.00 0.38 0.38 51 1021.2
20260831110537 75 55 2.6 8.7 0.00 0.38 0.38 52 1021.2
20260831110048 75 226 2.6 9.6 0.00 0.38 0.38 52 1021.1
20260831105536 74 336 2.6 9.6 0.00 0.38 0.38 53 1021.1
20260831105036 74 181 1.7 7.0 0.00 0.38 0.38 53 1021.2
20260831104536 74 154 1.7 6.1 0.00 0.38 0.38 54 1021.1
20260831104035 74 153 0.9 6.1 0.00 0.38 0.38 55 1021.1
20260831103534 74 306 0.0 5.2 0.00 0.38 0.38 55 1021.2
20260831103034 74 184 1.7 4.3 0.00 0.38 0.38 55 1021.1
20260831102534 74 325 0.9 4.3 0.00 0.38 0.38 55 1021.2
20260831102033 74 360 0.9 4.3 0.00 0.38 0.38 56 1021.2
20260831101533 73 92 0.9 5.2 0.00 0.38 0.38 57 1021.3
20260831101032 73 265 0.9 5.2 0.00 0.38 0.38 56 1021.3
20260831100532 73 53 0.0 7.0 0.00 0.38 0.38 58 1021.3
20260831100031 73 341 1.7 8.7 0.00 0.38 0.38 57 1021.3
20260831095531 73 309 3.5 8.7 0.00 0.38 0.38 56 1021.3
20260831095030 73 76 1.7 7.0 0.00 0.38 0.38 57 1021.4
20260831094530 73 148 1.7 7.0 0.00 0.38 0.38 58 1021.4
20260831094031 73 319 1.7 7.8 0.00 0.38 0.38 59 1021.4
20260831093531 73 230 2.6 7.8 0.00 0.38 0.38 59 1021.5
20260831093028 73 253 1.7 5.2 0.00 0.38 0.38 59 1021.4